Location: Ohmer (historical)
(38.0096°N, 122.0227°W)
Time: 00:56:49
(UTC+00:00)

Cosmos 2082 - Pass Details

Date: 14 February 2026
Orbit: 831 x 854 km, 71.0° (Epoch: 10 March)

Event Time Altitude Azimuth Distance (km) Brightness Sun altitude
Rises 13:43:48 0° 339° (NNW) 3,424 6.6 -15.4°
Reaches altitude 10° 13:46:17 10° 342° (NNW) 2,482 5.9 -14.9°
Maximum altitude 13:51:59 72° 67° (ENE) 889 4.0 -13.8°
Drops below altitude 10° 13:57:36 10° 151° (SSE) 2,452 6.6 -12.7°
Sets 14:00:02 0° 154° (SSE) 3,380 7.3 -12.2°
